Time,TemperatureF,DewpointF,PressureIn,WindDirection,WindDirectionDegrees,WindSpeedMPH,WindSpeedGustMPH,Humidity,HourlyPrecipIn,Conditions,Clouds,dailyrainin,SolarRadiationWatts/m^2,SoftwareType,DateUTC
2013-03-02 00:00:00,38.2,25.1,29.80,North,356,1.0,1.0,59,0.00,,,0.00,0.00,VWS V14.01,2013-03-02 05:00:00,
2013-03-02 00:02:00,38.2,25.1,29.80,North,356,0.0,2.0,59,0.00,,,0.00,0.00,VWS V14.01,2013-03-02 05:02:00,
2013-03-02 00:07:00,38.0,25.0,29.80,North,356,0.0,0.0,59,0.00,,,0.00,0.00,VWS V14.01,2013-03-02 05:07:00,
2013-03-02 00:12:00,37.9,24.5,29.80,North,356,0.0,0.0,58,0.00,,,0.00,0.00,VWS V14.01,2013-03-02 05:12:00,
2013-03-02 00:17:00,37.9,24.5,29.80,North,356,0.0,0.0,58,0.00,,,0.00,0.00,VWS V14.01,2013-03-02 05:17:00,
2013-03-02 00:22:00,37.8,24.8,29.80,North,356,0.0,0.0,59,0.00,,,0.00,0.00,VWS V14.01,2013-03-02 05:22:00,
2013-03-02 00:27:00,37.6,24.6,29.80,North,356,0.0,0.0,59,0.00,,,0.00,0.00,VWS V14.01,2013-03-02 05:27:00,
2013-03-02 00:32:00,37.5,25.3,29.80,North,356,0.0,0.0,61,0.00,,,0.00,0.00,VWS V14.01,2013-03-02 05:32:00,
2013-03-02 00:37:00,37.3,25.1,29.80,North,356,0.0,0.0,61,0.00,,,0.00,0.00,VWS V14.01,2013-03-02 05:37:00,
2013-03-02 00:42:00,37.2,25.4,29.80,North,356,0.0,0.0,62,0.00,,,0.00,0.00,VWS V14.01,2013-03-02 05:42:00,
2013-03-02 00:47:00,37.2,25.8,29.80,North,356,0.0,0.0,63,0.00,,,0.00,0.00,VWS V14.01,2013-03-02 05:47:00,
2013-03-02 00:52:00,37.0,25.6,29.80,North,356,0.0,0.0,63,0.00,,,0.00,0.00,VWS V14.01,2013-03-02 05:52:00,
2013-03-02 00:57:00,37.0,26.7,29.80,North,356,0.0,0.0,66,0.00,,,0.00,0.00,VWS V14.01,2013-03-02 05:57:00,
2013-03-02 01:02:00,37.2,27.6,29.80,North,356,0.0,0.0,68,0.00,,,0.00,0.00,VWS V14.01,2013-03-02 06:02:00,
2013-03-02 01:07:00,37.2,26.9,29.80,North,356,0.0,0.0,66,0.00,,,0.00,0.00,VWS V14.01,2013-03-02 06:07:00,
2013-03-02 01:12:00,37.2,26.5,29.80,North,356,0.0,0.0,65,0.00,,,0.00,0.00,VWS V14.01,2013-03-02 06:12:00,
2013-03-02 01:17:00,37.0,26.7,29.80,North,356,0.0,0.0,66,0.00,,,0.00,0.00,VWS V14.01,2013-03-02 06:17:00,
2013-03-02 01:22:00,36.9,25.9,29.80,North,356,0.0,0.0,64,0.00,,,0.00,0.00,VWS V14.01,2013-03-02 06:22:00,
2013-03-02 01:27:00,36.9,25.5,29.80,North,356,0.0,1.0,63,0.00,,,0.00,0.00,VWS V14.01,2013-03-02 06:27:00,
2013-03-02 01:32:00,36.8,25.0,29.80,North,356,0.0,0.0,62,0.00,,,0.00,0.00,VWS V14.01,2013-03-02 06:32:00,
2013-03-02 01:37:00,36.8,25.0,29.80,North,356,0.0,0.0,62,0.00,,,0.00,0.00,VWS V14.01,2013-03-02 06:37:00,
2013-03-02 01:42:00,36.8,25.0,29.80,North,356,0.0,0.0,62,0.00,,,0.00,0.00,VWS V14.01,2013-03-02 06:42:00,
2013-03-02 01:47:00,36.9,25.1,29.81,North,356,0.0,0.0,62,0.00,,,0.00,0.00,VWS V14.01,2013-03-02 06:47:00,
2013-03-02 01:52:00,37.0,24.8,29.81,North,356,0.0,0.0,61,0.00,,,0.00,0.00,VWS V14.01,2013-03-02 06:52:00,
2013-03-02 01:57:00,37.2,24.2,29.81,North,356,1.0,1.0,59,0.00,,,0.00,0.00,VWS V14.01,2013-03-02 06:57:00,
2013-03-02 02:02:00,37.5,24.5,29.81,North,358,0.0,0.0,59,0.00,,,0.00,0.00,VWS V14.01,2013-03-02 07:02:00,
2013-03-02 02:07:00,37.6,24.6,29.81,North,358,0.0,0.0,59,0.00,,,0.00,0.00,VWS V14.01,2013-03-02 07:07:00,
2013-03-02 02:12:00,37.8,24.8,29.81,North,358,0.0,0.0,59,0.00,,,0.00,0.00,VWS V14.01,2013-03-02 07:12:00,
2013-03-02 02:17:00,37.8,24.4,29.80,North,358,0.0,0.0,58,0.00,,,0.00,0.00,VWS V14.01,2013-03-02 07:17:00,
2013-03-02 02:22:00,37.9,24.5,29.80,North,358,0.0,0.0,58,0.00,,,0.00,0.00,VWS V14.01,2013-03-02 07:22:00,
2013-03-02 02:27:00,37.8,24.8,29.80,North,358,0.0,0.0,59,0.00,,,0.00,0.00,VWS V14.01,2013-03-02 07:27:00,
2013-03-02 02:32:00,37.8,24.8,29.80,North,358,0.0,0.0,59,0.00,,,0.00,0.00,VWS V14.01,2013-03-02 07:32:00,
2013-03-02 02:37:00,37.6,24.6,29.80,North,358,0.0,0.0,59,0.00,,,0.00,0.00,VWS V14.01,2013-03-02 07:37:00,
2013-03-02 02:42:00,37.6,25.4,29.80,North,358,0.0,0.0,61,0.00,,,0.00,0.00,VWS V14.01,2013-03-02 07:42:00,
2013-03-02 02:47:00,37.5,25.7,29.80,North,358,0.0,0.0,62,0.00,,,0.00,0.00,VWS V14.01,2013-03-02 07:47:00,
2013-03-02 02:52:00,37.5,26.5,29.80,North,358,0.0,2.0,64,0.00,,,0.00,0.00,VWS V14.01,2013-03-02 07:52:00,
2013-03-02 02:57:00,37.3,26.3,29.80,North,358,0.0,0.0,64,0.00,,,0.00,0.00,VWS V14.01,2013-03-02 07:57:00,
2013-03-02 03:02:00,37.2,26.2,29.79,North,358,0.0,0.0,64,0.00,,,0.00,0.00,VWS V14.01,2013-03-02 08:02:00,
2013-03-02 03:07:00,37.0,26.3,29.79,North,358,0.0,0.0,65,0.00,,,0.00,0.00,VWS V14.01,2013-03-02 08:07:00,
2013-03-02 03:12:00,37.0,26.3,29.79,North,358,0.0,0.0,65,0.00,,,0.00,0.00,VWS V14.01,2013-03-02 08:12:00,
2013-03-02 03:17:00,36.9,25.9,29.79,North,358,0.0,0.0,64,0.00,,,0.00,0.00,VWS V14.01,2013-03-02 08:17:00,
2013-03-02 03:22:00,36.8,25.8,29.79,North,358,0.0,0.0,64,0.00,,,0.00,0.00,VWS V14.01,2013-03-02 08:22:00,
2013-03-02 03:27:00,36.8,25.4,29.79,North,358,0.0,0.0,63,0.00,,,0.00,0.00,VWS V14.01,2013-03-02 08:27:00,
2013-03-02 03:32:00,36.8,25.0,29.78,North,358,0.0,0.0,62,0.00,,,0.00,0.00,VWS V14.01,2013-03-02 08:32:00,
2013-03-02 03:37:00,36.9,24.7,29.78,North,358,0.0,1.0,61,0.00,,,0.00,0.00,VWS V14.01,2013-03-02 08:37:00,
2013-03-02 03:42:00,37.0,24.8,29.78,North,358,0.0,0.0,61,0.00,,,0.00,0.00,VWS V14.01,2013-03-02 08:42:00,
2013-03-02 03:47:00,37.2,24.6,29.78,North,358,0.0,0.0,60,0.00,,,0.00,0.00,VWS V14.01,2013-03-02 08:47:00,
2013-03-02 03:52:00,37.3,24.7,29.78,North,358,0.0,0.0,60,0.00,,,0.00,0.00,VWS V14.01,2013-03-02 08:52:00,
2013-03-02 03:57:00,37.5,25.3,29.78,North,358,0.0,0.0,61,0.00,,,0.00,0.00,VWS V14.01,2013-03-02 08:57:00,
2013-03-02 04:02:00,37.5,25.7,29.78,North,358,0.0,0.0,62,0.00,,,0.00,0.00,VWS V14.01,2013-03-02 09:02:00,
2013-03-02 04:07:00,37.3,25.9,29.78,North,358,0.0,0.0,63,0.00,,,0.00,0.00,VWS V14.01,2013-03-02 09:07:00,
2013-03-02 04:12:00,37.2,25.8,29.78,North,358,0.0,0.0,63,0.00,,,0.00,0.00,VWS V14.01,2013-03-02 09:12:00,
2013-03-02 04:17:00,37.0,26.0,29.78,North,358,0.0,0.0,64,0.00,,,0.00,0.00,VWS V14.01,2013-03-02 09:17:00,
2013-03-02 04:22:00,36.8,25.8,29.78,North,358,0.0,0.0,64,0.00,,,0.00,0.00,VWS V14.01,2013-03-02 09:22:00,
2013-03-02 04:27:00,36.5,25.9,29.78,North,358,0.0,0.0,65,0.00,,,0.00,0.00,VWS V14.01,2013-03-02 09:27:00,
2013-03-02 04:32:00,36.2,25.6,29.78,North,358,0.0,1.0,65,0.00,,,0.00,0.00,VWS V14.01,2013-03-02 09:32:00,
2013-03-02 04:37:00,35.9,25.7,29.78,North,358,0.0,0.0,66,0.00,,,0.00,0.00,VWS V14.01,2013-03-02 09:37:00,
2013-03-02 04:42:00,35.5,25.6,29.78,North,358,0.0,0.0,67,0.00,,,0.00,0.00,VWS V14.01,2013-03-02 09:42:00,
2013-03-02 04:47:00,35.0,25.5,29.78,North,358,0.0,0.0,68,0.00,,,0.00,0.00,VWS V14.01,2013-03-02 09:47:00,
2013-03-02 04:52:00,34.7,25.2,29.78,North,358,0.0,0.0,68,0.00,,,0.00,0.00,VWS V14.01,2013-03-02 09:52:00,
2013-03-02 04:57:00,34.3,25.2,29.78,North,358,0.0,0.0,69,0.00,,,0.00,0.00,VWS V14.01,2013-03-02 09:57:00,
2013-03-02 05:02:00,33.8,25.1,29.78,North,358,0.0,0.0,70,0.00,,,0.00,0.00,VWS V14.01,2013-03-02 10:02:00,
2013-03-02 05:07:00,33.5,25.5,29.78,North,358,0.0,0.0,72,0.00,,,0.00,0.00,VWS V14.01,2013-03-02 10:07:00,
2013-03-02 05:12:00,33.1,25.1,29.78,North,358,0.0,0.0,72,0.00,,,0.00,0.00,VWS V14.01,2013-03-02 10:12:00,
2013-03-02 05:17:00,32.8,25.1,29.78,North,358,0.0,0.0,73,0.00,,,0.00,0.00,VWS V14.01,2013-03-02 10:17:00,
2013-03-02 05:22:00,32.5,25.1,29.78,North,358,0.0,0.0,74,0.00,,,0.00,0.00,VWS V14.01,2013-03-02 10:22:00,
2013-03-02 05:27:00,32.2,25.5,29.78,North,358,0.0,0.0,76,0.00,,,0.00,0.00,VWS V14.01,2013-03-02 10:27:00,
2013-03-02 05:32:00,31.9,25.2,29.78,North,358,0.0,0.0,76,0.00,,,0.00,0.00,VWS V14.01,2013-03-02 10:32:00,
2013-03-02 05:37:00,31.6,24.9,29.78,North,358,0.0,0.0,76,0.00,,,0.00,0.00,VWS V14.01,2013-03-02 10:37:00,
2013-03-02 05:42:00,31.3,24.6,29.78,North,358,0.0,0.0,76,0.00,,,0.00,0.00,VWS V14.01,2013-03-02 10:42:00,
2013-03-02 05:47:00,30.9,24.5,29.77,North,358,0.0,0.0,77,0.00,,,0.00,0.00,VWS V14.01,2013-03-02 10:47:00,
2013-03-02 05:52:00,30.6,24.6,29.77,North,358,0.0,0.0,78,0.00,,,0.00,0.00,VWS V14.01,2013-03-02 10:52:00,
2013-03-02 05:57:00,30.3,24.3,29.77,North,358,0.0,0.0,78,0.00,,,0.00,0.00,VWS V14.01,2013-03-02 10:57:00,
2013-03-02 06:02:00,30.1,24.4,29.78,North,358,0.0,0.0,79,0.00,,,0.00,0.00,VWS V14.01,2013-03-02 11:02:00,
2013-03-02 06:07:00,30.0,24.3,29.78,North,358,0.0,0.0,79,0.00,,,0.00,0.00,VWS V14.01,2013-03-02 11:07:00,
2013-03-02 06:12:00,29.7,24.0,29.78,North,358,0.0,1.0,79,0.00,,,0.00,0.00,VWS V14.01,2013-03-02 11:12:00,
2013-03-02 06:17:00,29.7,24.3,29.78,North,358,0.0,0.0,80,0.00,,,0.00,0.00,VWS V14.01,2013-03-02 11:17:00,
2013-03-02 06:22:00,29.5,24.4,29.78,North,358,0.0,0.0,81,0.00,,,0.00,0.00,VWS V14.01,2013-03-02 11:22:00,
2013-03-02 06:27:00,29.5,24.7,29.78,North,358,0.0,0.0,82,0.00,,,0.00,0.00,VWS V14.01,2013-03-02 11:27:00,
2013-03-02 06:32:00,29.4,24.6,29.78,North,358,0.0,0.0,82,0.00,,,0.00,0.00,VWS V14.01,2013-03-02 11:32:00,
2013-03-02 06:37:00,29.1,24.3,29.78,North,358,0.0,0.0,82,0.00,,,0.00,0.00,VWS V14.01,2013-03-02 11:37:00,
2013-03-02 06:42:00,29.0,24.2,29.78,North,358,0.0,0.0,82,0.00,,,0.00,0.00,VWS V14.01,2013-03-02 11:42:00,
2013-03-02 06:47:00,28.8,24.0,29.79,North,358,0.0,0.0,82,0.00,,,0.00,5.00,VWS V14.01,2013-03-02 11:47:00,
2013-03-02 06:52:00,28.7,24.2,29.79,North,358,0.0,0.0,83,0.00,,,0.00,9.00,VWS V14.01,2013-03-02 11:52:00,
2013-03-02 06:57:00,28.7,24.2,29.79,North,358,0.0,0.0,83,0.00,,,0.00,11.00,VWS V14.01,2013-03-02 11:57:00,
2013-03-02 07:02:00,28.7,24.2,29.79,North,358,0.0,0.0,83,0.00,,,0.00,14.00,VWS V14.01,2013-03-02 12:02:00,
2013-03-02 07:07:00,28.5,24.3,29.79,North,358,0.0,0.0,84,0.00,,,0.00,18.00,VWS V14.01,2013-03-02 12:07:00,
2013-03-02 07:12:00,28.5,24.3,29.79,North,358,0.0,0.0,84,0.00,,,0.00,25.00,VWS V14.01,2013-03-02 12:12:00,
2013-03-02 07:17:00,28.4,24.2,29.80,North,358,0.0,0.0,84,0.00,,,0.00,32.00,VWS V14.01,2013-03-02 12:17:00,
2013-03-02 07:22:00,28.5,24.3,29.80,North,358,0.0,0.0,84,0.00,,,0.00,37.00,VWS V14.01,2013-03-02 12:22:00,
2013-03-02 07:27:00,28.7,24.5,29.80,North,358,0.0,0.0,84,0.00,,,0.00,54.00,VWS V14.01,2013-03-02 12:27:00,
2013-03-02 07:32:00,29.0,25.1,29.80,North,358,0.0,0.0,85,0.00,,,0.00,62.00,VWS V14.01,2013-03-02 12:32:00,
2013-03-02 07:37:00,29.3,25.4,29.80,North,358,0.0,0.0,85,0.00,,,0.00,83.00,VWS V14.01,2013-03-02 12:37:00,
2013-03-02 07:42:00,29.7,26.0,29.80,North,358,0.0,0.0,86,0.00,,,0.00,83.00,VWS V14.01,2013-03-02 12:42:00,
2013-03-02 07:47:00,30.3,26.6,29.80,North,358,0.0,0.0,86,0.00,,,0.00,79.00,VWS V14.01,2013-03-02 12:47:00,
2013-03-02 07:52:00,30.9,27.5,29.80,North,358,0.0,0.0,87,0.00,,,0.00,83.00,VWS V14.01,2013-03-02 12:52:00,
2013-03-02 07:57:00,31.8,28.1,29.80,North,358,0.0,0.0,86,0.00,,,0.00,81.00,VWS V14.01,2013-03-02 12:57:00,
2013-03-02 08:02:00,32.4,28.7,29.80,North,358,0.0,0.0,86,0.00,,,0.00,84.00,VWS V14.01,2013-03-02 13:02:00,
2013-03-02 08:07:00,33.1,29.4,29.80,North,358,0.0,0.0,86,0.00,,,0.00,84.00,VWS V14.01,2013-03-02 13:07:00,
2013-03-02 08:12:00,33.5,29.5,29.80,North,358,0.0,0.0,85,0.00,,,0.00,90.00,VWS V14.01,2013-03-02 13:12:00,
2013-03-02 08:17:00,34.1,30.1,29.81,North,358,0.0,0.0,85,0.00,,,0.00,91.00,VWS V14.01,2013-03-02 13:17:00,
2013-03-02 08:22:00,34.7,30.1,29.81,North,358,0.0,0.0,83,0.00,,,0.00,95.00,VWS V14.01,2013-03-02 13:22:00,
2013-03-02 08:27:00,35.2,30.0,29.81,North,358,0.0,0.0,81,0.00,,,0.00,102.00,VWS V14.01,2013-03-02 13:27:00,
2013-03-02 08:32:00,35.6,29.7,29.81,North,358,0.0,0.0,79,0.00,,,0.00,109.00,VWS V14.01,2013-03-02 13:32:00,
2013-03-02 08:37:00,35.9,29.4,29.81,North,358,0.0,0.0,77,0.00,,,0.00,121.00,VWS V14.01,2013-03-02 13:37:00,
2013-03-02 08:42:00,36.3,29.5,29.81,North,358,0.0,0.0,76,0.00,,,0.00,134.00,VWS V14.01,2013-03-02 13:42:00,
2013-03-02 08:47:00,36.8,29.6,29.81,North,358,0.0,0.0,75,0.00,,,0.00,160.00,VWS V14.01,2013-03-02 13:47:00,
2013-03-02 08:52:00,37.2,29.7,29.81,North,358,0.0,1.0,74,0.00,,,0.00,172.00,VWS V14.01,2013-03-02 13:52:00,
2013-03-02 08:57:00,37.6,30.1,29.81,North,358,0.0,0.0,74,0.00,,,0.00,186.00,VWS V14.01,2013-03-02 13:57:00,
2013-03-02 09:02:00,38.0,30.1,29.80,North,358,0.0,0.0,73,0.00,,,0.00,200.00,VWS V14.01,2013-03-02 14:02:00,
2013-03-02 09:07:00,38.6,30.4,29.80,North,358,0.0,1.0,72,0.00,,,0.00,209.00,VWS V14.01,2013-03-02 14:07:00,
2013-03-02 09:12:00,39.1,30.2,29.80,North,358,3.0,3.0,70,0.00,,,0.00,216.00,VWS V14.01,2013-03-02 14:12:00,
2013-03-02 09:17:00,39.5,28.7,29.80,North,0,0.0,2.0,65,0.00,,,0.00,230.00,VWS V14.01,2013-03-02 14:17:00,
2013-03-02 09:22:00,39.9,28.7,29.80,North,0,0.0,0.0,64,0.00,,,0.00,241.00,VWS V14.01,2013-03-02 14:22:00,
2013-03-02 09:27:00,40.3,27.5,29.80,North,1,4.0,5.0,60,0.00,,,0.00,257.00,VWS V14.01,2013-03-02 14:27:00,
2013-03-02 09:32:00,40.6,27.0,29.80,North,6,0.0,4.0,58,0.00,,,0.00,265.00,VWS V14.01,2013-03-02 14:32:00,
2013-03-02 09:37:00,41.1,27.0,29.80,North,6,3.0,3.0,57,0.00,,,0.00,279.00,VWS V14.01,2013-03-02 14:37:00,
2013-03-02 09:42:00,41.5,26.5,29.80,North,354,3.0,3.0,55,0.00,,,0.00,302.00,VWS V14.01,2013-03-02 14:42:00,
2013-03-02 09:47:00,41.9,26.0,29.79,NNE,21,3.0,4.0,53,0.00,,,0.00,506.00,VWS V14.01,2013-03-02 14:47:00,
2013-03-02 09:52:00,42.5,26.1,29.79,NW,305,4.0,5.0,52,0.00,,,0.00,555.00,VWS V14.01,2013-03-02 14:52:00,
2013-03-02 09:57:00,43.2,25.8,29.79,North,352,0.0,3.0,50,0.00,,,0.00,596.00,VWS V14.01,2013-03-02 14:57:00,
2013-03-02 10:02:00,44.3,26.4,29.78,NE,53,0.0,6.0,49,0.00,,,0.00,610.00,VWS V14.01,2013-03-02 15:02:00,
2013-03-02 10:07:00,44.8,24.2,29.78,North,4,5.0,6.0,44,0.00,,,0.00,629.00,VWS V14.01,2013-03-02 15:07:00,
2013-03-02 10:12:00,44.8,24.2,29.78,NE,52,0.0,4.0,44,0.00,,,0.00,626.00,VWS V14.01,2013-03-02 15:12:00,
2013-03-02 10:17:00,45.1,24.0,29.78,North,0,8.0,10.0,43,0.00,,,0.00,288.00,VWS V14.01,2013-03-02 15:17:00,
2013-03-02 10:22:00,44.8,24.8,29.78,North,353,0.0,0.0,45,0.00,,,0.00,675.00,VWS V14.01,2013-03-02 15:22:00,
2013-03-02 10:27:00,45.1,24.5,29.78,NE,45,0.0,1.0,44,0.00,,,0.00,710.00,VWS V14.01,2013-03-02 15:27:00,
2013-03-02 10:32:00,45.2,24.0,29.78,North,357,0.0,6.0,43,0.00,,,0.00,139.00,VWS V14.01,2013-03-02 15:32:00,
2013-03-02 10:37:00,44.8,23.7,29.78,West,281,4.0,5.0,43,0.00,,,0.00,719.00,VWS V14.01,2013-03-02 15:37:00,
2013-03-02 10:42:00,45.4,25.3,29.78,North,355,7.0,7.0,45,0.00,,,0.00,714.00,VWS V14.01,2013-03-02 15:42:00,
2013-03-02 10:47:00,46.2,25.5,29.78,WSW,256,0.0,4.0,44,0.00,,,0.00,752.00,VWS V14.01,2013-03-02 15:47:00,
2013-03-02 10:52:00,46.7,24.8,29.78,SSE,165,0.0,0.0,42,0.00,,,0.00,786.00,VWS V14.01,2013-03-02 15:52:00,
2013-03-02 10:57:00,47.3,24.8,29.78,NNE,15,0.0,11.0,41,0.00,,,0.00,858.00,VWS V14.01,2013-03-02 15:57:00,
2013-03-02 11:02:00,46.8,23.8,29.77,NNE,32,3.0,5.0,40,0.00,,,0.00,243.00,VWS V14.01,2013-03-02 16:02:00,
2013-03-02 11:07:00,46.8,24.9,29.77,NW,325,2.0,7.0,42,0.00,,,0.00,784.00,VWS V14.01,2013-03-02 16:07:00,
2013-03-02 11:12:00,47.3,24.8,29.77,North,0,0.0,7.0,41,0.00,,,0.00,773.00,VWS V14.01,2013-03-02 16:12:00,
2013-03-02 11:17:00,47.9,25.4,29.77,WNW,298,6.0,10.0,41,0.00,,,0.00,780.00,VWS V14.01,2013-03-02 16:17:00,
2013-03-02 11:22:00,47.9,24.1,29.77,WSW,254,7.0,7.0,39,0.00,,,0.00,810.00,VWS V14.01,2013-03-02 16:22:00,
2013-03-02 11:27:00,48.2,25.0,29.77,NW,323,0.0,5.0,40,0.00,,,0.00,814.00,VWS V14.01,2013-03-02 16:27:00,
2013-03-02 11:32:00,48.6,25.4,29.77,North,358,4.0,5.0,40,0.00,,,0.00,844.00,VWS V14.01,2013-03-02 16:32:00,
2013-03-02 11:37:00,48.5,24.1,29.77,NNE,21,3.0,9.0,38,0.00,,,0.00,870.00,VWS V14.01,2013-03-02 16:37:00,
2013-03-02 11:42:00,48.2,23.8,29.77,North,358,2.0,6.0,38,0.00,,,0.00,835.00,VWS V14.01,2013-03-02 16:42:00,
2013-03-02 11:47:00,48.6,24.8,29.76,North,353,0.0,3.0,39,0.00,,,0.00,882.00,VWS V14.01,2013-03-02 16:47:00,
2013-03-02 11:52:00,49.2,23.4,29.76,NNW,342,0.0,0.0,36,0.00,,,0.00,939.00,VWS V14.01,2013-03-02 16:52:00,
2013-03-02 11:57:00,49.2,24.1,29.76,West,279,3.0,4.0,37,0.00,,,0.00,731.00,VWS V14.01,2013-03-02 16:57:00,
2013-03-02 12:02:00,48.6,24.2,29.76,NW,316,4.0,4.0,38,0.00,,,0.00,216.00,VWS V14.01,2013-03-02 17:02:00,
2013-03-02 12:07:00,48.5,24.1,29.76,NW,324,5.0,7.0,38,0.00,,,0.00,933.00,VWS V14.01,2013-03-02 17:07:00,
2013-03-02 12:12:00,48.2,22.5,29.76,North,357,1.0,10.0,36,0.00,,,0.00,153.00,VWS V14.01,2013-03-02 17:12:00,
2013-03-02 12:17:00,47.1,22.8,29.75,NNE,12,5.0,5.0,38,0.00,,,0.00,186.00,VWS V14.01,2013-03-02 17:17:00,
2013-03-02 12:22:00,47.0,24.0,29.75,NE,41,0.0,0.0,40,0.00,,,0.00,821.00,VWS V14.01,2013-03-02 17:22:00,
2013-03-02 12:27:00,47.3,23.0,29.75,WNW,299,4.0,4.0,38,0.00,,,0.00,178.00,VWS V14.01,2013-03-02 17:27:00,
2013-03-02 12:32:00,47.9,24.8,29.75,NNW,333,1.0,7.0,40,0.00,,,0.00,847.00,VWS V14.01,2013-03-02 17:32:00,
2013-03-02 12:37:00,48.8,23.0,29.75,North,0,6.0,10.0,36,0.00,,,0.00,882.00,VWS V14.01,2013-03-02 17:37:00,
2013-03-02 12:42:00,49.2,23.4,29.75,NW,309,4.0,17.0,36,0.00,,,0.00,946.00,VWS V14.01,2013-03-02 17:42:00,
2013-03-02 12:47:00,49.5,23.7,29.74,WNW,297,11.0,15.0,36,0.00,,,0.00,1000.00,VWS V14.01,2013-03-02 17:47:00,
2013-03-02 12:52:00,49.8,25.2,29.74,North,352,0.0,2.0,38,0.00,,,0.00,995.00,VWS V14.01,2013-03-02 17:52:00,
2013-03-02 12:57:00,50.2,22.9,29.74,NE,41,3.0,4.0,34,0.00,,,0.00,1011.00,VWS V14.01,2013-03-02 17:57:00,
2013-03-02 13:02:00,50.4,23.1,29.73,North,353,11.0,11.0,34,0.00,,,0.00,1060.00,VWS V14.01,2013-03-02 18:02:00,
2013-03-02 13:07:00,50.2,23.6,29.73,WNW,294,4.0,11.0,35,0.00,,,0.00,316.00,VWS V14.01,2013-03-02 18:07:00,
2013-03-02 13:12:00,49.5,23.0,29.73,NNW,347,4.0,13.0,35,0.00,,,0.00,229.00,VWS V14.01,2013-03-02 18:12:00,
2013-03-02 13:17:00,49.1,23.3,29.72,NNE,31,3.0,10.0,36,0.00,,,0.00,958.00,VWS V14.01,2013-03-02 18:17:00,
2013-03-02 13:22:00,49.2,24.7,29.72,NNW,338,0.0,6.0,38,0.00,,,0.00,902.00,VWS V14.01,2013-03-02 18:22:00,
2013-03-02 13:27:00,50.1,22.8,29.72,North,0,4.0,4.0,34,0.00,,,0.00,939.00,VWS V14.01,2013-03-02 18:27:00,
2013-03-02 13:32:00,51.1,23.7,29.72,North,352,4.0,12.0,34,0.00,,,0.00,926.00,VWS V14.01,2013-03-02 18:32:00,
2013-03-02 13:37:00,51.6,25.5,29.72,WNW,300,10.0,10.0,36,0.00,,,0.00,339.00,VWS V14.01,2013-03-02 18:37:00,
2013-03-02 13:42:00,50.8,22.8,29.72,North,8,3.0,5.0,33,0.00,,,0.00,239.00,VWS V14.01,2013-03-02 18:42:00,
2013-03-02 13:47:00,49.6,23.1,29.72,NW,326,1.0,8.0,35,0.00,,,0.00,264.00,VWS V14.01,2013-03-02 18:47:00,
2013-03-02 13:52:00,48.6,22.9,29.72,North,11,4.0,11.0,36,0.00,,,0.00,237.00,VWS V14.01,2013-03-02 18:52:00,
2013-03-02 13:57:00,48.3,23.3,29.72,NW,305,4.0,5.0,37,0.00,,,0.00,306.00,VWS V14.01,2013-03-02 18:57:00,
2013-03-02 14:02:00,48.8,23.0,29.72,North,358,5.0,15.0,36,0.00,,,0.00,309.00,VWS V14.01,2013-03-02 19:02:00,
2013-03-02 14:07:00,48.9,23.1,29.72,NNW,342,5.0,9.0,36,0.00,,,0.00,304.00,VWS V14.01,2013-03-02 19:07:00,
2013-03-02 14:12:00,49.2,24.1,29.72,North,0,5.0,7.0,37,0.00,,,0.00,360.00,VWS V14.01,2013-03-02 19:12:00,
2013-03-02 14:17:00,49.5,23.0,29.72,WNW,297,0.0,0.0,35,0.00,,,0.00,350.00,VWS V14.01,2013-03-02 19:17:00,
2013-03-02 14:22:00,49.5,23.0,29.72,North,358,6.0,8.0,35,0.00,,,0.00,295.00,VWS V14.01,2013-03-02 19:22:00,
2013-03-02 14:27:00,49.6,23.8,29.72,NNW,335,6.0,8.0,36,0.00,,,0.00,865.00,VWS V14.01,2013-03-02 19:27:00,
2013-03-02 14:32:00,49.9,24.0,29.71,NW,323,3.0,14.0,36,0.00,,,0.00,492.00,VWS V14.01,2013-03-02 19:32:00,
2013-03-02 14:37:00,50.2,24.3,29.71,WNW,296,5.0,6.0,36,0.00,,,0.00,926.00,VWS V14.01,2013-03-02 19:37:00,
2013-03-02 14:42:00,50.4,22.4,29.71,NNW,334,6.0,9.0,33,0.00,,,0.00,367.00,VWS V14.01,2013-03-02 19:42:00,
2013-03-02 14:47:00,50.8,24.1,29.71,West,276,6.0,8.0,35,0.00,,,0.00,854.00,VWS V14.01,2013-03-02 19:47:00,
2013-03-02 14:52:00,51.4,23.3,29.71,North,1,8.0,8.0,33,0.00,,,0.00,267.00,VWS V14.01,2013-03-02 19:52:00,
2013-03-02 14:57:00,50.8,23.5,29.71,ENE,65,5.0,11.0,34,0.00,,,0.00,190.00,VWS V14.01,2013-03-02 19:57:00,
2013-03-02 15:02:00,49.8,23.3,29.71,North,1,0.0,4.0,35,0.00,,,0.00,190.00,VWS V14.01,2013-03-02 20:02:00,
2013-03-02 15:07:00,48.9,23.1,29.71,North,7,0.0,2.0,36,0.00,,,0.00,199.00,VWS V14.01,2013-03-02 20:07:00,
2013-03-02 15:12:00,48.3,23.3,29.71,NNW,336,5.0,13.0,37,0.00,,,0.00,179.00,VWS V14.01,2013-03-02 20:12:00,
2013-03-02 15:17:00,47.7,23.4,29.71,North,9,7.0,7.0,38,0.00,,,0.00,190.00,VWS V14.01,2013-03-02 20:17:00,
2013-03-02 15:22:00,47.4,23.1,29.71,North,0,7.0,7.0,38,0.00,,,0.00,190.00,VWS V14.01,2013-03-02 20:22:00,
2013-03-02 15:27:00,47.1,23.4,29.71,North,5,0.0,7.0,39,0.00,,,0.00,151.00,VWS V14.01,2013-03-02 20:27:00,
2013-03-02 15:32:00,47.1,23.4,29.71,North,0,4.0,5.0,39,0.00,,,0.00,142.00,VWS V14.01,2013-03-02 20:32:00,
2013-03-02 15:37:00,47.0,23.3,29.71,NW,315,10.0,10.0,39,0.00,,,0.00,171.00,VWS V14.01,2013-03-02 20:37:00,
2013-03-02 15:42:00,46.8,23.2,29.71,North,356,0.0,6.0,39,0.00,,,0.00,183.00,VWS V14.01,2013-03-02 20:42:00,
2013-03-02 15:47:00,46.7,23.1,29.71,North,2,3.0,5.0,39,0.00,,,0.00,200.00,VWS V14.01,2013-03-02 20:47:00,
2013-03-02 15:52:00,46.8,23.2,29.71,North,353,0.0,2.0,39,0.00,,,0.00,162.00,VWS V14.01,2013-03-02 20:52:00,
2013-03-02 15:57:00,46.8,23.2,29.71,NW,313,0.0,4.0,39,0.00,,,0.00,153.00,VWS V14.01,2013-03-02 20:57:00,
2013-03-02 16:02:00,46.7,23.1,29.71,NNW,340,0.0,0.0,39,0.00,,,0.00,179.00,VWS V14.01,2013-03-02 21:02:00,
2013-03-02 16:07:00,47.0,24.0,29.71,NNW,346,0.0,5.0,40,0.00,,,0.00,501.00,VWS V14.01,2013-03-02 21:07:00,
2013-03-02 16:12:00,47.6,23.3,29.71,North,350,2.0,12.0,38,0.00,,,0.00,408.00,VWS V14.01,2013-03-02 21:12:00,
2013-03-02 16:17:00,47.7,22.7,29.71,NW,304,10.0,12.0,37,0.00,,,0.00,160.00,VWS V14.01,2013-03-02 21:17:00,
2013-03-02 16:22:00,47.6,23.3,29.71,North,9,0.0,5.0,38,0.00,,,0.00,156.00,VWS V14.01,2013-03-02 21:22:00,
2013-03-02 16:27:00,47.3,23.6,29.71,NNW,335,5.0,10.0,39,0.00,,,0.00,125.00,VWS V14.01,2013-03-02 21:27:00,
2013-03-02 16:32:00,47.0,23.3,29.71,NNW,336,4.0,5.0,39,0.00,,,0.00,183.00,VWS V14.01,2013-03-02 21:32:00,
2013-03-02 16:37:00,47.0,23.3,29.71,West,279,5.0,6.0,39,0.00,,,0.00,114.00,VWS V14.01,2013-03-02 21:37:00,
2013-03-02 16:42:00,46.8,23.2,29.71,North,9,0.0,3.0,39,0.00,,,0.00,91.00,VWS V14.01,2013-03-02 21:42:00,
2013-03-02 16:47:00,46.5,23.5,29.72,NNE,20,0.0,0.0,40,0.00,,,0.00,84.00,VWS V14.01,2013-03-02 21:47:00,
2013-03-02 16:52:00,46.5,23.5,29.72,North,0,0.0,1.0,40,0.00,,,0.00,70.00,VWS V14.01,2013-03-02 21:52:00,
2013-03-02 16:57:00,46.4,24.0,29.72,North,0,0.0,1.0,41,0.00,,,0.00,54.00,VWS V14.01,2013-03-02 21:57:00,
2013-03-02 17:02:00,46.2,23.8,29.72,North,1,0.0,0.0,41,0.00,,,0.00,46.00,VWS V14.01,2013-03-02 22:02:00,
2013-03-02 17:07:00,46.0,23.0,29.72,North,357,4.0,6.0,40,0.00,,,0.00,40.00,VWS V14.01,2013-03-02 22:07:00,
2013-03-02 17:12:00,45.7,23.4,29.72,NNE,23,2.0,5.0,41,0.00,,,0.00,47.00,VWS V14.01,2013-03-02 22:12:00,
2013-03-02 17:17:00,45.5,23.8,29.72,NNE,32,4.0,4.0,42,0.00,,,0.00,46.00,VWS V14.01,2013-03-02 22:17:00,
2013-03-02 17:22:00,45.2,23.5,29.72,NNE,18,0.0,0.0,42,0.00,,,0.00,32.00,VWS V14.01,2013-03-02 22:22:00,
2013-03-02 17:27:00,45.1,23.4,29.72,North,0,2.0,6.0,42,0.00,,,0.00,23.00,VWS V14.01,2013-03-02 22:27:00,
2013-03-02 17:32:00,44.8,23.1,29.73,North,349,3.0,3.0,42,0.00,,,0.00,19.00,VWS V14.01,2013-03-02 22:32:00,
2013-03-02 17:37:00,44.6,23.5,29.73,North,354,6.0,10.0,43,0.00,,,0.00,16.00,VWS V14.01,2013-03-02 22:37:00,
2013-03-02 17:42:00,44.3,23.2,29.73,North,9,6.0,9.0,43,0.00,,,0.00,14.00,VWS V14.01,2013-03-02 22:42:00,
2013-03-02 17:47:00,44.2,23.1,29.74,North,3,0.0,0.0,43,0.00,,,0.00,12.00,VWS V14.01,2013-03-02 22:47:00,
2013-03-02 17:52:00,44.1,23.6,29.74,NW,316,6.0,9.0,44,0.00,,,0.00,11.00,VWS V14.01,2013-03-02 22:52:00,
2013-03-02 17:57:00,43.9,23.4,29.74,NW,322,3.0,7.0,44,0.00,,,0.00,9.00,VWS V14.01,2013-03-02 22:57:00,
2013-03-02 18:02:00,43.8,23.3,29.74,North,1,3.0,5.0,44,0.00,,,0.00,5.00,VWS V14.01,2013-03-02 23:02:00,
2013-03-02 18:07:00,43.6,23.1,29.74,North,0,0.0,0.0,44,0.00,,,0.00,0.00,VWS V14.01,2013-03-02 23:07:00,
2013-03-02 18:12:00,43.5,23.6,29.74,North,4,6.0,6.0,45,0.00,,,0.00,0.00,VWS V14.01,2013-03-02 23:12:00,
2013-03-02 18:17:00,43.3,23.9,29.75,NNE,16,2.0,4.0,46,0.00,,,0.00,0.00,VWS V14.01,2013-03-02 23:17:00,
2013-03-02 18:22:00,43.2,23.8,29.75,NW,326,0.0,5.0,46,0.00,,,0.00,0.00,VWS V14.01,2013-03-02 23:22:00,
2013-03-02 18:27:00,43.1,23.7,29.75,NNE,20,1.0,4.0,46,0.00,,,0.00,0.00,VWS V14.01,2013-03-02 23:27:00,
2013-03-02 18:32:00,42.9,23.6,29.76,NNE,31,4.0,4.0,46,0.00,,,0.00,0.00,VWS V14.01,2013-03-02 23:32:00,
2013-03-02 18:37:00,42.8,24.0,29.76,NNE,25,0.0,2.0,47,0.00,,,0.00,0.00,VWS V14.01,2013-03-02 23:37:00,
2013-03-02 18:42:00,42.6,23.8,29.76,NNE,15,5.0,5.0,47,0.00,,,0.00,0.00,VWS V14.01,2013-03-02 23:42:00,
2013-03-02 18:47:00,42.5,23.7,29.76,North,8,0.0,0.0,47,0.00,,,0.00,0.00,VWS V14.01,2013-03-02 23:47:00,
2013-03-02 18:52:00,42.3,24.0,29.76,NNE,29,0.0,0.0,48,0.00,,,0.00,0.00,VWS V14.01,2013-03-02 23:52:00,
2013-03-02 18:57:00,42.2,23.9,29.76,North,8,0.0,3.0,48,0.00,,,0.00,0.00,VWS V14.01,2013-03-02 23:57:00,
2013-03-02 19:02:00,42.2,23.9,29.76,North,8,0.0,0.0,48,0.00,,,0.00,0.00,VWS V14.01,2013-03-03 00:02:00,
2013-03-02 19:07:00,42.1,23.8,29.76,North,4,4.0,6.0,48,0.00,,,0.00,0.00,VWS V14.01,2013-03-03 00:07:00,
2013-03-02 19:12:00,42.1,24.3,29.76,NW,307,2.0,5.0,49,0.00,,,0.00,0.00,VWS V14.01,2013-03-03 00:12:00,
2013-03-02 19:17:00,41.9,24.1,29.77,North,0,0.0,5.0,49,0.00,,,0.00,0.00,VWS V14.01,2013-03-03 00:17:00,
2013-03-02 19:22:00,41.8,24.1,29.77,NNE,24,4.0,6.0,49,0.00,,,0.00,0.00,VWS V14.01,2013-03-03 00:22:00,
2013-03-02 19:27:00,41.6,23.9,29.77,North,352,1.0,4.0,49,0.00,,,0.00,0.00,VWS V14.01,2013-03-03 00:27:00,
2013-03-02 19:32:00,41.5,23.8,29.77,North,358,0.0,2.0,49,0.00,,,0.00,0.00,VWS V14.01,2013-03-03 00:32:00,
2013-03-02 19:37:00,41.5,23.8,29.77,North,352,3.0,3.0,49,0.00,,,0.00,0.00,VWS V14.01,2013-03-03 00:37:00,
2013-03-02 19:42:00,41.3,24.1,29.77,NNE,13,0.0,4.0,50,0.00,,,0.00,0.00,VWS V14.01,2013-03-03 00:42:00,
2013-03-02 19:47:00,41.1,23.4,29.77,North,11,1.0,4.0,49,0.00,,,0.00,0.00,VWS V14.01,2013-03-03 00:47:00,
2013-03-02 19:52:00,40.9,23.7,29.77,North,358,0.0,3.0,50,0.00,,,0.00,0.00,VWS V14.01,2013-03-03 00:52:00,
2013-03-02 19:57:00,40.6,23.4,29.77,North,0,0.0,5.0,50,0.00,,,0.00,0.00,VWS V14.01,2013-03-03 00:57:00,
2013-03-02 20:02:00,40.3,23.1,29.78,NE,34,0.0,0.0,50,0.00,,,0.00,0.00,VWS V14.01,2013-03-03 01:02:00,
2013-03-02 20:07:00,40.1,23.4,29.78,NNE,25,0.0,0.0,51,0.00,,,0.00,0.00,VWS V14.01,2013-03-03 01:07:00,
2013-03-02 20:12:00,39.8,23.2,29.78,North,9,3.0,5.0,51,0.00,,,0.00,0.00,VWS V14.01,2013-03-03 01:12:00,
2013-03-02 20:17:00,39.5,23.4,29.78,North,9,0.0,3.0,52,0.00,,,0.00,0.00,VWS V14.01,2013-03-03 01:17:00,
2013-03-02 20:22:00,39.1,23.4,29.78,North,9,0.0,0.0,53,0.00,,,0.00,0.00,VWS V14.01,2013-03-03 01:22:00,
2013-03-02 20:27:00,38.8,23.1,29.78,North,358,0.0,1.0,53,0.00,,,0.00,0.00,VWS V14.01,2013-03-03 01:27:00,
2013-03-02 20:32:00,38.8,23.1,29.79,NNW,344,0.0,4.0,53,0.00,,,0.00,0.00,VWS V14.01,2013-03-03 01:32:00,
2013-03-02 20:37:00,38.8,22.7,29.79,NNW,339,4.0,5.0,52,0.00,,,0.00,0.00,VWS V14.01,2013-03-03 01:37:00,
2013-03-02 20:42:00,38.8,22.7,29.79,NNE,27,4.0,9.0,52,0.00,,,0.00,0.00,VWS V14.01,2013-03-03 01:42:00,
2013-03-02 20:47:00,38.6,22.0,29.80,North,0,0.0,2.0,51,0.00,,,0.00,0.00,VWS V14.01,2013-03-03 01:47:00,
2013-03-02 20:52:00,38.5,22.4,29.80,North,0,0.0,5.0,52,0.00,,,0.00,0.00,VWS V14.01,2013-03-03 01:52:00,
2013-03-02 20:57:00,38.3,21.8,29.80,North,1,3.0,9.0,51,0.00,,,0.00,0.00,VWS V14.01,2013-03-03 01:57:00,
2013-03-02 21:02:00,38.0,21.5,29.80,North,9,2.0,3.0,51,0.00,,,0.00,0.00,VWS V14.01,2013-03-03 02:02:00,
2013-03-02 21:07:00,37.9,21.4,29.80,NNE,20,5.0,6.0,51,0.00,,,0.00,0.00,VWS V14.01,2013-03-03 02:07:00,
2013-03-02 21:12:00,37.8,21.3,29.80,North,8,0.0,3.0,51,0.00,,,0.00,0.00,VWS V14.01,2013-03-03 02:12:00,
2013-03-02 21:17:00,37.8,21.8,29.81,NNE,23,0.0,3.0,52,0.00,,,0.00,0.00,VWS V14.01,2013-03-03 02:17:00,
2013-03-02 21:21:00,37.8,22.2,29.81,North,358,0.0,0.0,53,0.00,,,0.00,0.00,VWS V14.01,2013-03-03 02:21:00,
2013-03-02 21:26:00,37.6,21.6,29.81,North,10,2.0,2.0,52,0.00,,,0.00,0.00,VWS V14.01,2013-03-03 02:26:00,
2013-03-02 21:31:00,37.6,21.1,29.81,North,349,5.0,7.0,51,0.00,,,0.00,0.00,VWS V14.01,2013-03-03 02:31:00,
2013-03-02 21:36:00,37.6,20.7,29.81,North,349,3.0,6.0,50,0.00,,,0.00,0.00,VWS V14.01,2013-03-03 02:36:00,
2013-03-02 21:41:00,37.6,19.7,29.81,North,355,6.0,6.0,48,0.00,,,0.00,0.00,VWS V14.01,2013-03-03 02:41:00,
2013-03-02 21:46:00,37.5,19.6,29.81,North,358,0.0,1.0,48,0.00,,,0.00,0.00,VWS V14.01,2013-03-03 02:46:00,
2013-03-02 21:51:00,37.3,19.4,29.81,NW,312,6.0,12.0,48,0.00,,,0.00,0.00,VWS V14.01,2013-03-03 02:51:00,
2013-03-02 21:56:00,37.2,18.8,29.81,NE,39,4.0,7.0,47,0.00,,,0.00,0.00,VWS V14.01,2013-03-03 02:56:00,
2013-03-02 22:01:00,37.0,18.7,29.82,NNE,25,1.0,3.0,47,0.00,,,0.00,0.00,VWS V14.01,2013-03-03 03:01:00,
2013-03-02 22:06:00,36.9,19.1,29.82,NNW,345,0.0,1.0,48,0.00,,,0.00,0.00,VWS V14.01,2013-03-03 03:06:00,
2013-03-02 22:11:00,36.6,18.8,29.82,North,0,4.0,4.0,48,0.00,,,0.00,0.00,VWS V14.01,2013-03-03 03:11:00,
2013-03-02 22:16:00,36.5,19.2,29.82,NW,314,0.0,0.0,49,0.00,,,0.00,0.00,VWS V14.01,2013-03-03 03:16:00,
2013-03-02 22:21:00,36.2,18.9,29.82,North,358,0.0,0.0,49,0.00,,,0.00,0.00,VWS V14.01,2013-03-03 03:21:00,
2013-03-02 22:26:00,36.0,19.2,29.82,NW,308,1.0,5.0,50,0.00,,,0.00,0.00,VWS V14.01,2013-03-03 03:26:00,
2013-03-02 22:31:00,35.8,19.0,29.82,NW,308,0.0,0.0,50,0.00,,,0.00,0.00,VWS V14.01,2013-03-03 03:31:00,
2013-03-02 22:36:00,35.5,19.2,29.82,NNW,348,0.0,0.0,51,0.00,,,0.00,0.00,VWS V14.01,2013-03-03 03:36:00,
2013-03-02 22:41:00,35.3,19.5,29.82,WNW,282,2.0,4.0,52,0.00,,,0.00,0.00,VWS V14.01,2013-03-03 03:41:00,
2013-03-02 22:46:00,35.0,19.2,29.82,NNW,335,2.0,3.0,52,0.00,,,0.00,0.00,VWS V14.01,2013-03-03 03:46:00,
2013-03-02 22:51:00,34.9,18.6,29.82,NW,317,0.0,1.0,51,0.00,,,0.00,0.00,VWS V14.01,2013-03-03 03:51:00,
2013-03-02 22:56:00,34.7,18.9,29.82,NW,317,0.0,2.0,52,0.00,,,0.00,0.00,VWS V14.01,2013-03-03 03:56:00,
2013-03-02 23:01:00,34.6,18.8,29.82,NW,317,0.0,0.0,52,0.00,,,0.00,0.00,VWS V14.01,2013-03-03 04:01:00,
2013-03-02 23:06:00,34.4,18.6,29.82,NW,315,3.0,3.0,52,0.00,,,0.00,0.00,VWS V14.01,2013-03-03 04:06:00,
2013-03-02 23:11:00,34.4,18.6,29.82,NW,304,5.0,5.0,52,0.00,,,0.00,0.00,VWS V14.01,2013-03-03 04:11:00,
2013-03-02 23:16:00,34.3,18.5,29.82,NW,310,3.0,6.0,52,0.00,,,0.00,0.00,VWS V14.01,2013-03-03 04:16:00,
2013-03-02 23:21:00,34.3,18.5,29.82,North,0,4.0,4.0,52,0.00,,,0.00,0.00,VWS V14.01,2013-03-03 04:21:00,
2013-03-02 23:26:00,34.1,18.3,29.82,NNW,330,1.0,4.0,52,0.00,,,0.00,0.00,VWS V14.01,2013-03-03 04:26:00,
2013-03-02 23:31:00,34.1,18.3,29.82,NW,304,0.0,0.0,52,0.00,,,0.00,0.00,VWS V14.01,2013-03-03 04:31:00,
2013-03-02 23:36:00,34.0,18.2,29.82,NNW,347,3.0,3.0,52,0.00,,,0.00,0.00,VWS V14.01,2013-03-03 04:36:00,
2013-03-02 23:41:00,33.8,18.0,29.82,WNW,293,2.0,4.0,52,0.00,,,0.00,0.00,VWS V14.01,2013-03-03 04:41:00,
2013-03-02 23:46:00,33.7,18.4,29.82,WNW,299,0.0,0.0,53,0.00,,,0.00,0.00,VWS V14.01,2013-03-03 04:46:00,
2013-03-02 23:51:00,33.5,18.6,29.82,WNW,298,2.0,3.0,54,0.00,,,0.00,0.00,VWS V14.01,2013-03-03 04:51:00,
2013-03-02 23:56:00,33.2,18.4,29.82,West,272,4.0,7.0,54,0.00,,,0.00,0.00,VWS V14.01,2013-03-03 04:56:00,